Regional Weather Roundup
Issued by NWS

Home | Current Version | Previous Version | Text Only | Print | Product List | Glossary Off
Versions: 1 2 3 4 5 6 7 8 9 10 11 12 13 14 15 16 17 18 19 20 21 22 23 24 25 26 27 28 29 30 31 32 33 34 35 36 37 38 39 40 41 42 43 44 45 46 47 48 49 50

000
ASUS43 KFSD 170202
RWRSD

WEATHER ROUNDUP FOR SOUTH DAKOTA
NATIONAL WEATHER SERVICE SIOUX FALLS SD
800 PM CST SAT DEC 16 2017

NOTE: "FAIR" INDICATES FEW OR NO CLOUDS BELOW 12,000 FEET WITH NO
SIGNIFICANT WEATHER AND/OR OBSTRUCTIONS TO VISIBILITY.


SDZ001>005-009-010-012>017-170300-
NORTHWEST AND NORTH CENTRAL SOUTH DAKOTA

CITY           SKY/WX    TMP DP  RH WIND       PRES   REMARKS
BUFFALO          N/A     30  24  78 NW6       29.97R WCI  24
FAITH            N/A     31  26  82 N7        30.04R WCI  24
MOBRIDGE       CLOUDY    34  29  82 CALM      30.03R
$$

SDZ012>016-024>037-041>051-057-063-072>074-170300-
SOUTHWEST AND SOUTH CENTRAL SOUTH DAKOTA

CITY           SKY/WX    TMP DP  RH WIND       PRES   REMARKS
RAPID CTY ARPT CLOUDY    33  24  69 N9        30.03R WCI  25
PIERRE         CLOUDY    35  31  85 CALM      30.05R
CUSTER         FLURRIES  25  20  81 NE7       29.95R WCI  17
ELLSWORTH AFB  CLOUDY    34  24  67 N8        30.03R WCI  27
PHILIP         CLOUDY    35  29  78 N6        30.05R
PINE RIDGE     CLOUDY    34  26  72 N8        30.02R WCI  27
SPEARFISH      MOCLDY    30  27  86 CALM      30.03R
WINNER         CLOUDY    39  32  76 N8        30.04R
$$

SDZ004>011-016>023-039-040-170300-
NORTHEAST SOUTH DAKOTA

CITY           SKY/WX    TMP DP  RH WIND       PRES   REMARKS
ABERDEEN       CLOUDY    33  29  85 W3        30.05R
WATERTOWN      CLOUDY    33  31  92 E7        30.03R WCI  27
BROOKINGS      CLOUDY    34  31  88 NE3       30.04R
SISSETON         N/A     31  29  92 CALM      30.06R
$$

SDZ017-020-022-023-036>040-048>070-170300-
SOUTHEAST SOUTH DAKOTA

CITY           SKY/WX    TMP DP  RH WIND       PRES   REMARKS
SIOUX FALLS    CLOUDY    30  27  88 NE6       30.03R WCI  24
HURON          CLOUDY    36  33  89 N3        30.05R
CHAMBERLAIN    CLOUDY    39  35  85 N5        30.05R
MITCHELL       CLOUDY    34  32  92 N3        30.05R
YANKTON        PTCLDY    34  30  85 N7        30.03R WCI  28
$$

ABBREVIATIONS USED IN REMARKS
   TC - TEMPERATURE IN CELSIUS
  WCI - WIND CHILL INDEX
   HX - HEAT INDEX
  VSB - VISIBILITY





USA.gov is the U.S. government's official web portal to all federal, state and local government web resources and services.